Volver al catálogo

THORAD AGENA D DEB

ActivoSSO
NORAD 4773·DEBRIS·🇺🇸 United States

Lanzado Apr 8, 1970 desde Vandenberg Space Force Base

Loading…

Próximos Pases (próximas 24 horas)

TLE

ActualizadoSource: Space-Track

Época: Sep 14, 2026, 08:59 UTC

1 04773U 70025DT  26257.37463142  .00000118  00000-0  23030-3 0  9998
2 04773 100.0194 310.6994 0030999  34.5815  25.9372 13.57133040780196

Sigue THORAD AGENA D DEB en tiempo real con AllMySat

Download on the App Store